Time,TemperatureF,DewpointF,PressureIn,WindDirection,WindDirectionDegrees,WindSpeedMPH,WindSpeedGustMPH,Humidity,HourlyPrecipIn,Conditions,Clouds,dailyrainin,SoftwareType,DateUTC
2013-03-10 00:00:00,33.7,22.1,30.49,ESE,114,2.0,2.0,62,0.00,,,0.00,Wunderground v.1.15,2013-03-10 05:00:00,
2013-03-10 00:05:00,33.6,22.0,30.48,ESE,114,1.0,2.0,62,0.00,,,0.00,Wunderground v.1.15,2013-03-10 05:05:00,
2013-03-10 00:10:00,33.5,22.2,30.48,East,98,1.0,2.0,63,0.00,,,0.00,Wunderground v.1.15,2013-03-10 05:10:00,
2013-03-10 00:15:00,33.3,22.1,30.48,East,98,1.0,2.0,63,0.00,,,0.00,Wunderground v.1.15,2013-03-10 05:15:00,
2013-03-10 00:25:00,33.0,22.1,30.49,East,98,1.0,2.0,64,0.00,,,0.00,Wunderground v.1.15,2013-03-10 05:25:00,
2013-03-10 00:30:00,32.4,22.3,30.49,East,98,1.0,1.0,66,0.00,,,0.00,Wunderground v.1.15,2013-03-10 05:30:00,
2013-03-10 00:35:00,32.1,22.0,30.49,East,98,1.0,1.0,66,0.00,,,0.00,Wunderground v.1.15,2013-03-10 05:35:00,
2013-03-10 00:40:00,31.9,22.5,30.49,East,98,1.0,1.0,68,0.00,,,0.00,Wunderground v.1.15,2013-03-10 05:40:00,
2013-03-10 00:45:00,31.9,22.9,30.49,East,98,1.0,1.0,69,0.00,,,0.00,Wunderground v.1.15,2013-03-10 05:45:00,
2013-03-10 00:50:00,31.8,23.1,30.49,East,98,1.0,1.0,70,0.00,,,0.00,Wunderground v.1.15,2013-03-10 05:50:00,
2013-03-10 01:00:00,31.7,23.4,30.49,East,98,0.0,1.0,71,0.00,,,0.00,Wunderground v.1.15,2013-03-10 06:00:00,
2013-03-10 01:05:00,31.5,23.2,30.50,East,99,0.0,1.0,71,0.00,,,0.00,Wunderground v.1.15,2013-03-10 06:05:00,
2013-03-10 01:10:00,31.4,23.4,30.50,East,99,1.0,1.0,72,0.00,,,0.00,Wunderground v.1.15,2013-03-10 06:10:00,
2013-03-10 01:15:00,31.3,23.6,30.50,East,99,1.0,1.0,73,0.00,,,0.00,Wunderground v.1.15,2013-03-10 06:15:00,
2013-03-10 01:20:00,31.3,23.6,30.50,East,99,1.0,1.0,73,0.00,,,0.00,Wunderground v.1.15,2013-03-10 06:20:00,
2013-03-10 01:25:00,31.2,23.5,30.50,East,99,1.0,1.0,73,0.00,,,0.00,Wunderground v.1.15,2013-03-10 06:25:00,
2013-03-10 01:30:00,31.2,23.2,30.50,East,99,1.0,1.0,72,0.00,,,0.00,Wunderground v.1.15,2013-03-10 06:30:00,
2013-03-10 01:35:00,31.2,23.5,30.50,East,99,1.0,1.0,73,0.00,,,0.00,Wunderground v.1.15,2013-03-10 06:35:00,
2013-03-10 01:40:00,31.3,23.6,30.49,East,99,1.0,1.0,73,0.00,,,0.00,Wunderground v.1.15,2013-03-10 06:40:00,
2013-03-10 01:50:00,31.9,23.9,30.49,East,99,1.0,1.0,72,0.00,,,0.00,Wunderground v.1.15,2013-03-10 06:50:00,
2013-03-10 01:55:00,31.9,23.9,30.49,East,99,1.0,1.0,72,0.00,,,0.00,Wunderground v.1.15,2013-03-10 06:55:00,
2013-03-10 03:00:00,32.0,24.0,30.49,East,99,0.0,0.0,72,0.00,,,0.00,Wunderground v.1.15,2013-03-10 07:00:00,
2013-03-10 03:05:00,32.0,24.0,30.49,East,99,0.0,0.0,72,0.00,,,0.00,Wunderground v.1.15,2013-03-10 07:05:00,
2013-03-10 03:10:00,31.9,23.9,30.49,East,99,0.0,0.0,72,0.00,,,0.00,Wunderground v.1.15,2013-03-10 07:10:00,
2013-03-10 03:15:00,31.7,23.7,30.49,East,99,0.0,0.0,72,0.00,,,0.00,Wunderground v.1.15,2013-03-10 07:15:00,
2013-03-10 03:20:00,31.4,23.4,30.49,East,99,0.0,1.0,72,0.00,,,0.00,Wunderground v.1.15,2013-03-10 07:20:00,
2013-03-10 03:25:00,31.3,24.0,30.49,East,99,1.0,2.0,74,0.00,,,0.00,Wunderground v.1.15,2013-03-10 07:25:00,
2013-03-10 03:30:00,31.5,24.2,30.49,East,99,2.0,2.0,74,0.00,,,0.00,Wunderground v.1.15,2013-03-10 07:30:00,
2013-03-10 03:35:00,31.6,24.3,30.49,East,99,2.0,2.0,74,0.00,,,0.00,Wunderground v.1.15,2013-03-10 07:35:00,
2013-03-10 03:40:00,31.7,24.4,30.49,East,99,2.0,2.0,74,0.00,,,0.00,Wunderground v.1.15,2013-03-10 07:40:00,
2013-03-10 03:45:00,31.9,24.6,30.49,East,99,1.0,2.0,74,0.00,,,0.00,Wunderground v.1.15,2013-03-10 07:45:00,
2013-03-10 03:55:00,31.3,23.6,30.49,East,99,0.0,1.0,73,0.00,,,0.00,Wunderground v.1.15,2013-03-10 07:55:00,
2013-03-10 04:00:00,31.0,23.7,30.49,East,99,0.0,1.0,74,0.00,,,0.00,Wunderground v.1.15,2013-03-10 08:00:00,
2013-03-10 04:05:00,30.6,23.6,30.49,East,99,1.0,1.0,75,0.00,,,0.00,Wunderground v.1.15,2013-03-10 08:05:00,
2013-03-10 04:15:00,30.1,23.4,30.49,East,99,1.0,1.0,76,0.00,,,0.00,Wunderground v.1.15,2013-03-10 08:15:00,
2013-03-10 04:20:00,30.2,24.2,30.49,East,99,1.0,1.0,78,0.00,,,0.00,Wunderground v.1.15,2013-03-10 08:20:00,
2013-03-10 04:25:00,30.3,24.3,30.49,East,99,1.0,1.0,78,0.00,,,0.00,Wunderground v.1.15,2013-03-10 08:25:00,
2013-03-10 04:30:00,30.3,24.3,30.49,East,99,0.0,1.0,78,0.00,,,0.00,Wunderground v.1.15,2013-03-10 08:30:00,
2013-03-10 04:35:00,30.2,24.2,30.49,East,99,0.0,1.0,78,0.00,,,0.00,Wunderground v.1.15,2013-03-10 08:35:00,
2013-03-10 04:40:00,30.2,24.2,30.49,ESE,116,0.0,2.0,78,0.00,,,0.00,Wunderground v.1.15,2013-03-10 08:40:00,
2013-03-10 04:45:00,30.5,23.8,30.49,ESE,115,1.0,2.0,76,0.00,,,0.00,Wunderground v.1.15,2013-03-10 08:45:00,
2013-03-10 04:50:00,30.7,23.7,30.49,ESE,107,2.0,2.0,75,0.00,,,0.00,Wunderground v.1.15,2013-03-10 08:50:00,
2013-03-10 04:55:00,30.8,23.8,30.49,ESE,107,2.0,2.0,75,0.00,,,0.00,Wunderground v.1.15,2013-03-10 08:55:00,
2013-03-10 05:00:00,30.8,23.5,30.49,ESE,107,1.0,1.0,74,0.00,,,0.00,Wunderground v.1.15,2013-03-10 09:00:00,
2013-03-10 05:05:00,30.6,23.3,30.49,ESE,107,0.0,1.0,74,0.00,,,0.00,Wunderground v.1.15,2013-03-10 09:05:00,
2013-03-10 05:10:00,30.3,23.3,30.49,ESE,107,1.0,2.0,75,0.00,,,0.00,Wunderground v.1.15,2013-03-10 09:10:00,
2013-03-10 05:15:00,30.1,23.4,30.49,ESE,107,1.0,2.0,76,0.00,,,0.00,Wunderground v.1.15,2013-03-10 09:15:00,
2013-03-10 05:25:00,30.0,23.4,30.49,ESE,107,1.0,2.0,76,0.00,,,0.00,Wunderground v.1.15,2013-03-10 09:25:00,
2013-03-10 05:30:00,29.6,22.3,30.49,ESE,107,1.0,1.0,74,0.00,,,0.00,Wunderground v.1.15,2013-03-10 09:30:00,
2013-03-10 05:35:00,29.3,22.4,30.48,ESE,107,0.0,1.0,75,0.00,,,0.00,Wunderground v.1.15,2013-03-10 09:35:00,
2013-03-10 05:40:00,29.1,22.2,30.48,ESE,107,0.0,0.0,75,0.00,,,0.00,Wunderground v.1.15,2013-03-10 09:40:00,
2013-03-10 05:45:00,29.0,22.1,30.49,ESE,107,0.0,0.0,75,0.00,,,0.00,Wunderground v.1.15,2013-03-10 09:45:00,
2013-03-10 05:50:00,28.9,22.0,30.49,ESE,107,0.0,1.0,75,0.00,,,0.00,Wunderground v.1.15,2013-03-10 09:50:00,
2013-03-10 05:55:00,28.8,22.5,30.49,ESE,107,1.0,1.0,77,0.00,,,0.00,Wunderground v.1.15,2013-03-10 09:55:00,
2013-03-10 06:00:00,28.7,22.4,30.49,ESE,107,1.0,1.0,77,0.00,,,0.00,Wunderground v.1.15,2013-03-10 10:00:00,
2013-03-10 06:05:00,28.5,22.2,30.49,ESE,107,0.0,1.0,77,0.00,,,0.00,Wunderground v.1.15,2013-03-10 10:05:00,
2013-03-10 06:10:00,28.5,22.2,30.49,ESE,107,1.0,1.0,77,0.00,,,0.00,Wunderground v.1.15,2013-03-10 10:10:00,
2013-03-10 06:15:00,28.5,22.2,30.49,ESE,107,1.0,1.0,77,0.00,,,0.00,Wunderground v.1.15,2013-03-10 10:15:00,
2013-03-10 06:20:00,28.4,22.1,30.49,ESE,107,1.0,1.0,77,0.00,,,0.00,Wunderground v.1.15,2013-03-10 10:20:00,
2013-03-10 06:25:00,28.4,22.4,30.49,ESE,107,1.0,1.0,78,0.00,,,0.00,Wunderground v.1.15,2013-03-10 10:25:00,
2013-03-10 06:30:00,28.3,22.0,30.50,ESE,107,1.0,1.0,77,0.00,,,0.00,Wunderground v.1.15,2013-03-10 10:30:00,
2013-03-10 06:35:00,28.4,22.7,30.50,ESE,107,0.0,1.0,79,0.00,,,0.00,Wunderground v.1.15,2013-03-10 10:35:00,
2013-03-10 06:40:00,28.5,22.8,30.50,ESE,107,0.0,0.0,79,0.00,,,0.00,Wunderground v.1.15,2013-03-10 10:40:00,
2013-03-10 06:45:00,28.5,22.8,30.50,ESE,107,0.0,0.0,79,0.00,,,0.00,Wunderground v.1.15,2013-03-10 10:45:00,
2013-03-10 06:50:00,28.3,22.3,30.50,ESE,107,0.0,0.0,78,0.00,,,0.00,Wunderground v.1.15,2013-03-10 10:50:00,
2013-03-10 07:00:00,27.8,22.1,30.50,ESE,107,0.0,0.0,79,0.00,,,0.00,Wunderground v.1.15,2013-03-10 11:00:00,
2013-03-10 07:05:00,27.6,22.2,30.50,ESE,107,0.0,0.0,80,0.00,,,0.00,Wunderground v.1.15,2013-03-10 11:05:00,
2013-03-10 07:10:00,27.5,22.1,30.50,ESE,107,0.0,1.0,80,0.00,,,0.00,Wunderground v.1.15,2013-03-10 11:10:00,
2013-03-10 07:15:00,27.6,22.2,30.50,ESE,107,0.0,1.0,80,0.00,,,0.00,Wunderground v.1.15,2013-03-10 11:15:00,
2013-03-10 07:20:00,27.7,22.0,30.50,ESE,107,0.0,0.0,79,0.00,,,0.00,Wunderground v.1.15,2013-03-10 11:20:00,
2013-03-10 07:25:00,27.9,21.9,30.50,ESE,107,0.0,0.0,78,0.00,,,0.00,Wunderground v.1.15,2013-03-10 11:25:00,
2013-03-10 07:30:00,27.9,21.9,30.50,ESE,107,0.0,0.0,78,0.00,,,0.00,Wunderground v.1.15,2013-03-10 11:30:00,
2013-03-10 07:35:00,28.0,22.0,30.50,ESE,107,1.0,2.0,78,0.00,,,0.00,Wunderground v.1.15,2013-03-10 11:35:00,
2013-03-10 07:40:00,28.2,22.2,30.50,ESE,107,1.0,1.0,78,0.00,,,0.00,Wunderground v.1.15,2013-03-10 11:40:00,
2013-03-10 07:45:00,28.4,22.1,30.51,ESE,107,0.0,1.0,77,0.00,,,0.00,Wunderground v.1.15,2013-03-10 11:45:00,
2013-03-10 07:50:00,28.5,22.2,30.51,ESE,107,0.0,0.0,77,0.00,,,0.00,Wunderground v.1.15,2013-03-10 11:50:00,
2013-03-10 07:55:00,28.4,22.1,30.51,ESE,107,0.0,0.0,77,0.00,,,0.00,Wunderground v.1.15,2013-03-10 11:55:00,
2013-03-10 08:00:00,28.6,22.0,30.51,ESE,107,0.0,1.0,76,0.00,,,0.00,Wunderground v.1.15,2013-03-10 12:00:00,
2013-03-10 08:10:00,29.2,22.6,30.51,ESE,107,0.0,0.0,76,0.00,,,0.00,Wunderground v.1.15,2013-03-10 12:10:00,
2013-03-10 08:15:00,29.7,23.4,30.51,ESE,107,0.0,0.0,77,0.00,,,0.00,Wunderground v.1.15,2013-03-10 12:15:00,
2013-03-10 08:20:00,30.0,23.0,30.51,ESE,107,0.0,0.0,75,0.00,,,0.00,Wunderground v.1.15,2013-03-10 12:20:00,
2013-03-10 08:25:00,30.3,23.3,30.52,ESE,107,0.0,0.0,75,0.00,,,0.00,Wunderground v.1.15,2013-03-10 12:25:00,
2013-03-10 08:30:00,30.6,23.3,30.51,ESE,107,0.0,0.0,74,0.00,,,0.00,Wunderground v.1.15,2013-03-10 12:30:00,
2013-03-10 08:35:00,30.6,23.0,30.52,ESE,107,0.0,0.0,73,0.00,,,0.00,Wunderground v.1.15,2013-03-10 12:35:00,
2013-03-10 08:40:00,30.5,22.9,30.52,ESE,107,0.0,1.0,73,0.00,,,0.00,Wunderground v.1.15,2013-03-10 12:40:00,
2013-03-10 08:45:00,30.5,22.9,30.52,ESE,107,0.0,1.0,73,0.00,,,0.00,Wunderground v.1.15,2013-03-10 12:45:00,
2013-03-10 08:50:00,30.5,22.9,30.52,ESE,107,1.0,1.0,73,0.00,,,0.00,Wunderground v.1.15,2013-03-10 12:50:00,
2013-03-10 08:55:00,31.0,23.7,30.51,ESE,107,0.0,1.0,74,0.00,,,0.00,Wunderground v.1.15,2013-03-10 12:55:00,
2013-03-10 09:00:00,31.9,23.9,30.52,ESE,107,0.0,0.0,72,0.00,,,0.00,Wunderground v.1.15,2013-03-10 13:00:00,
2013-03-10 09:05:00,32.5,24.1,30.52,ESE,107,0.0,0.0,71,0.00,,,0.00,Wunderground v.1.15,2013-03-10 13:05:00,
2013-03-10 09:10:00,32.6,23.2,30.52,ESE,107,0.0,0.0,68,0.00,,,0.00,Wunderground v.1.15,2013-03-10 13:10:00,
2013-03-10 09:15:00,32.6,23.6,30.52,ESE,107,1.0,1.0,69,0.00,,,0.00,Wunderground v.1.15,2013-03-10 13:15:00,
2013-03-10 09:20:00,32.8,23.4,30.52,ESE,107,1.0,1.0,68,0.00,,,0.00,Wunderground v.1.15,2013-03-10 13:20:00,
2013-03-10 09:25:00,33.0,23.9,30.52,ESE,107,1.0,1.0,69,0.00,,,0.00,Wunderground v.1.15,2013-03-10 13:25:00,
2013-03-10 09:30:00,33.4,23.6,30.51,ESE,107,1.0,1.0,67,0.00,,,0.00,Wunderground v.1.15,2013-03-10 13:30:00,
2013-03-10 09:35:00,33.6,24.2,30.51,ESE,107,1.0,1.0,68,0.00,,,0.00,Wunderground v.1.15,2013-03-10 13:35:00,
2013-03-10 09:40:00,33.8,24.0,30.51,ESE,104,1.0,1.0,67,0.00,,,0.00,Wunderground v.1.15,2013-03-10 13:40:00,
2013-03-10 09:45:00,33.8,23.6,30.51,ENE,60,2.0,3.0,66,0.00,,,0.00,Wunderground v.1.15,2013-03-10 13:45:00,
2013-03-10 09:50:00,33.9,24.1,30.51,East,94,2.0,2.0,67,0.00,,,0.00,Wunderground v.1.15,2013-03-10 13:50:00,
2013-03-10 09:55:00,34.4,24.2,30.51,East,94,2.0,2.0,66,0.00,,,0.00,Wunderground v.1.15,2013-03-10 13:55:00,
2013-03-10 10:00:00,34.7,24.1,30.52,ENE,76,1.0,1.0,65,0.00,,,0.00,Wunderground v.1.15,2013-03-10 14:00:00,
2013-03-10 10:10:00,34.9,24.7,30.51,ENE,71,1.0,2.0,66,0.00,,,0.00,Wunderground v.1.15,2013-03-10 14:10:00,
2013-03-10 10:15:00,35.4,24.0,30.52,ENE,71,1.0,2.0,63,0.00,,,0.00,Wunderground v.1.15,2013-03-10 14:15:00,
2013-03-10 10:20:00,35.9,24.9,30.52,ENE,71,1.0,1.0,64,0.00,,,0.00,Wunderground v.1.15,2013-03-10 14:20:00,
2013-03-10 10:25:00,36.1,24.3,30.52,WNW,301,1.0,2.0,62,0.00,,,0.00,Wunderground v.1.15,2013-03-10 14:25:00,
2013-03-10 10:30:00,35.7,23.9,30.52,NNW,336,2.0,3.0,62,0.00,,,0.00,Wunderground v.1.15,2013-03-10 14:30:00,
2013-03-10 10:35:00,35.7,23.9,30.52,NNE,15,3.0,3.0,62,0.00,,,0.00,Wunderground v.1.15,2013-03-10 14:35:00,
2013-03-10 10:40:00,36.1,24.3,30.52,NE,36,2.0,2.0,62,0.00,,,0.00,Wunderground v.1.15,2013-03-10 14:40:00,
2013-03-10 10:45:00,36.2,24.0,30.52,North,11,2.0,4.0,61,0.00,,,0.00,Wunderground v.1.15,2013-03-10 14:45:00,
2013-03-10 10:55:00,36.4,23.8,30.51,NE,36,3.0,3.0,60,0.00,,,0.00,Wunderground v.1.15,2013-03-10 14:55:00,
2013-03-10 11:00:00,37.1,24.5,30.51,NE,55,2.0,2.0,60,0.00,,,0.00,Wunderground v.1.15,2013-03-10 15:00:00,
2013-03-10 11:05:00,37.5,24.1,30.50,West,279,2.0,4.0,58,0.00,,,0.00,Wunderground v.1.15,2013-03-10 15:05:00,
2013-03-10 11:10:00,37.5,24.1,30.51,NNW,336,2.0,3.0,58,0.00,,,0.00,Wunderground v.1.15,2013-03-10 15:10:00,
2013-03-10 11:15:00,37.6,23.7,30.50,WNW,291,3.0,3.0,57,0.00,,,0.00,Wunderground v.1.15,2013-03-10 15:15:00,
2013-03-10 11:20:00,38.0,23.7,30.50,NW,308,3.0,4.0,56,0.00,,,0.00,Wunderground v.1.15,2013-03-10 15:20:00,
2013-03-10 11:25:00,38.3,24.0,30.50,NNW,342,3.0,5.0,56,0.00,,,0.00,Wunderground v.1.15,2013-03-10 15:25:00,
2013-03-10 11:30:00,38.4,24.5,30.50,West,278,3.0,4.0,57,0.00,,,0.00,Wunderground v.1.15,2013-03-10 15:30:00,
2013-03-10 11:35:00,38.8,24.0,30.50,NW,309,3.0,4.0,55,0.00,,,0.00,Wunderground v.1.15,2013-03-10 15:35:00,
2013-03-10 11:40:00,39.1,23.8,30.49,West,270,3.0,4.0,54,0.00,,,0.00,Wunderground v.1.15,2013-03-10 15:40:00,
2013-03-10 11:45:00,39.6,24.3,30.49,SSW,210,3.0,4.0,54,0.00,,,0.00,Wunderground v.1.15,2013-03-10 15:45:00,
2013-03-10 11:50:00,40.1,24.3,30.49,WSW,250,2.0,3.0,53,0.00,,,0.00,Wunderground v.1.15,2013-03-10 15:50:00,
2013-03-10 11:55:00,40.2,24.0,30.49,SW,235,2.0,6.0,52,0.00,,,0.00,Wunderground v.1.15,2013-03-10 15:55:00,
2013-03-10 12:00:00,40.3,24.1,30.49,WSW,255,3.0,3.0,52,0.00,,,0.00,Wunderground v.1.15,2013-03-10 16:00:00,
2013-03-10 12:05:00,40.2,24.0,30.49,NNW,340,3.0,4.0,52,0.00,,,0.00,Wunderground v.1.15,2013-03-10 16:05:00,
2013-03-10 12:10:00,40.1,23.9,30.49,North,355,4.0,4.0,52,0.00,,,0.00,Wunderground v.1.15,2013-03-10 16:10:00,
2013-03-10 12:15:00,40.5,24.2,30.48,NE,36,3.0,4.0,52,0.00,,,0.00,Wunderground v.1.15,2013-03-10 16:15:00,
2013-03-10 12:20:00,41.2,23.9,30.49,NW,315,2.0,2.0,50,0.00,,,0.00,Wunderground v.1.15,2013-03-10 16:20:00,
2013-03-10 12:25:00,41.6,24.3,30.49,North,355,2.0,2.0,50,0.00,,,0.00,Wunderground v.1.15,2013-03-10 16:25:00,
2013-03-10 12:30:00,42.2,23.9,30.48,SW,232,3.0,3.0,48,0.00,,,0.00,Wunderground v.1.15,2013-03-10 16:30:00,
2013-03-10 12:40:00,42.6,24.3,30.48,West,261,4.0,5.0,48,0.00,,,0.00,Wunderground v.1.15,2013-03-10 16:40:00,
2013-03-10 12:45:00,42.9,24.0,30.47,West,273,4.0,5.0,47,0.00,,,0.00,Wunderground v.1.15,2013-03-10 16:45:00,
2013-03-10 12:50:00,42.7,23.8,30.47,WNW,296,4.0,5.0,47,0.00,,,0.00,Wunderground v.1.15,2013-03-10 16:50:00,
2013-03-10 12:55:00,43.0,24.1,30.47,SW,225,4.0,5.0,47,0.00,,,0.00,Wunderground v.1.15,2013-03-10 16:55:00,
2013-03-10 13:00:00,43.6,24.2,30.47,WNW,300,3.0,4.0,46,0.00,,,0.00,Wunderground v.1.15,2013-03-10 17:00:00,
2013-03-10 13:10:00,43.9,24.4,30.47,WSW,242,3.0,3.0,46,0.00,,,0.00,Wunderground v.1.15,2013-03-10 17:10:00,
2013-03-10 13:15:00,44.6,24.5,30.47,SSW,192,2.0,3.0,45,0.00,,,0.00,Wunderground v.1.15,2013-03-10 17:15:00,
2013-03-10 13:20:00,45.1,25.0,30.47,South,187,2.0,2.0,45,0.00,,,0.00,Wunderground v.1.15,2013-03-10 17:20:00,
2013-03-10 13:25:00,45.6,24.9,30.47,SSW,211,2.0,5.0,44,0.00,,,0.00,Wunderground v.1.15,2013-03-10 17:25:00,
2013-03-10 13:30:00,45.3,24.6,30.46,SW,217,3.0,3.0,44,0.00,,,0.00,Wunderground v.1.15,2013-03-10 17:30:00,
2013-03-10 13:35:00,45.1,23.9,30.46,West,268,4.0,4.0,43,0.00,,,0.00,Wunderground v.1.15,2013-03-10 17:35:00,
2013-03-10 13:40:00,45.0,24.4,30.46,West,273,4.0,6.0,44,0.00,,,0.00,Wunderground v.1.15,2013-03-10 17:40:00,
2013-03-10 13:45:00,45.7,25.5,30.45,South,185,2.0,6.0,45,0.00,,,0.00,Wunderground v.1.15,2013-03-10 17:45:00,
2013-03-10 13:50:00,45.9,24.6,30.45,WSW,238,3.0,5.0,43,0.00,,,0.00,Wunderground v.1.15,2013-03-10 17:50:00,
2013-03-10 13:55:00,45.1,24.5,30.45,WSW,254,4.0,6.0,44,0.00,,,0.00,Wunderground v.1.15,2013-03-10 17:55:00,
2013-03-10 14:00:00,45.1,24.5,30.45,SSE,160,5.0,5.0,44,0.00,,,0.00,Wunderground v.1.15,2013-03-10 18:00:00,
2013-03-10 14:10:00,45.6,23.8,30.45,SW,215,4.0,4.0,42,0.00,,,0.00,Wunderground v.1.15,2013-03-10 18:10:00,
2013-03-10 14:15:00,45.2,22.9,30.45,WNW,293,5.0,7.0,41,0.00,,,0.00,Wunderground v.1.15,2013-03-10 18:15:00,
2013-03-10 14:20:00,45.4,23.6,30.45,SSW,203,4.0,4.0,42,0.00,,,0.00,Wunderground v.1.15,2013-03-10 18:20:00,
2013-03-10 14:25:00,46.2,23.8,30.44,West,259,3.0,6.0,41,0.00,,,0.00,Wunderground v.1.15,2013-03-10 18:25:00,
2013-03-10 14:30:00,45.4,23.6,30.44,WSW,239,5.0,5.0,42,0.00,,,0.00,Wunderground v.1.15,2013-03-10 18:30:00,
2013-03-10 14:35:00,45.7,23.3,30.44,SSW,207,5.0,10.0,41,0.00,,,0.00,Wunderground v.1.15,2013-03-10 18:35:00,
2013-03-10 14:45:00,46.4,23.4,30.44,WSW,238,4.0,4.0,40,0.00,,,0.00,Wunderground v.1.15,2013-03-10 18:45:00,
2013-03-10 14:50:00,46.7,23.0,30.44,SSE,167,3.0,3.0,39,0.00,,,0.00,Wunderground v.1.15,2013-03-10 18:50:00,
2013-03-10 15:00:00,46.7,24.2,30.43,South,178,4.0,4.0,41,0.00,,,0.00,Wunderground v.1.15,2013-03-10 19:00:00,
2013-03-10 15:05:00,46.8,23.7,30.43,SW,223,3.0,4.0,40,0.00,,,0.00,Wunderground v.1.15,2013-03-10 19:05:00,
2013-03-10 15:10:00,46.7,23.0,30.43,SSW,198,4.0,4.0,39,0.00,,,0.00,Wunderground v.1.15,2013-03-10 19:10:00,
2013-03-10 15:15:00,46.3,23.3,30.43,WSW,240,5.0,5.0,40,0.00,,,0.00,Wunderground v.1.15,2013-03-10 19:15:00,
2013-03-10 15:20:00,46.2,23.2,30.43,SW,215,5.0,6.0,40,0.00,,,0.00,Wunderground v.1.15,2013-03-10 19:20:00,
2013-03-10 15:25:00,45.9,23.5,30.43,West,261,6.0,6.0,41,0.00,,,0.00,Wunderground v.1.15,2013-03-10 19:25:00,
2013-03-10 15:30:00,45.9,23.5,30.43,SSW,208,6.0,6.0,41,0.00,,,0.00,Wunderground v.1.15,2013-03-10 19:30:00,
2013-03-10 15:35:00,46.8,24.3,30.43,SW,226,3.0,6.0,41,0.00,,,0.00,Wunderground v.1.15,2013-03-10 19:35:00,
2013-03-10 15:40:00,47.0,23.9,30.43,WSW,248,3.0,7.0,40,0.00,,,0.00,Wunderground v.1.15,2013-03-10 19:40:00,
2013-03-10 15:45:00,46.8,24.3,30.42,South,182,4.0,7.0,41,0.00,,,0.00,Wunderground v.1.15,2013-03-10 19:45:00,
2013-03-10 15:50:00,47.0,23.9,30.43,SSE,150,4.0,4.0,40,0.00,,,0.00,Wunderground v.1.15,2013-03-10 19:50:00,
2013-03-10 15:55:00,47.3,24.8,30.42,SSW,209,3.0,4.0,41,0.00,,,0.00,Wunderground v.1.15,2013-03-10 19:55:00,
2013-03-10 16:00:00,48.0,24.2,30.42,WSW,255,2.0,5.0,39,0.00,,,0.00,Wunderground v.1.15,2013-03-10 20:00:00,
2013-03-10 16:05:00,47.7,24.5,30.42,South,181,3.0,5.0,40,0.00,,,0.00,Wunderground v.1.15,2013-03-10 20:05:00,
2013-03-10 16:10:00,47.6,24.4,30.42,West,277,4.0,4.0,40,0.00,,,0.00,Wunderground v.1.15,2013-03-10 20:10:00,
2013-03-10 16:15:00,47.4,24.3,30.42,SW,229,3.0,8.0,40,0.00,,,0.00,Wunderground v.1.15,2013-03-10 20:15:00,
2013-03-10 16:20:00,47.3,24.2,30.43,South,187,4.0,4.0,40,0.00,,,0.00,Wunderground v.1.15,2013-03-10 20:20:00,
2013-03-10 16:25:00,47.0,24.5,30.42,South,183,4.0,4.0,41,0.00,,,0.00,Wunderground v.1.15,2013-03-10 20:25:00,
2013-03-10 16:30:00,46.9,24.4,30.43,SW,221,4.0,4.0,41,0.00,,,0.00,Wunderground v.1.15,2013-03-10 20:30:00,
2013-03-10 16:35:00,46.6,24.7,30.43,WSW,252,5.0,5.0,42,0.00,,,0.00,Wunderground v.1.15,2013-03-10 20:35:00,
2013-03-10 16:40:00,46.7,24.2,30.43,SSW,207,4.0,5.0,41,0.00,,,0.00,Wunderground v.1.15,2013-03-10 20:40:00,
2013-03-10 16:50:00,46.2,24.9,30.42,SW,226,4.0,4.0,43,0.00,,,0.00,Wunderground v.1.15,2013-03-10 20:50:00,
2013-03-10 16:55:00,46.0,25.3,30.42,SSW,203,3.0,4.0,44,0.00,,,0.00,Wunderground v.1.15,2013-03-10 20:55:00,
2013-03-10 17:00:00,45.7,25.0,30.42,SW,224,3.0,4.0,44,0.00,,,0.00,Wunderground v.1.15,2013-03-10 21:00:00,
2013-03-10 17:05:00,45.5,25.4,30.41,SSW,199,2.0,5.0,45,0.00,,,0.00,Wunderground v.1.15,2013-03-10 21:05:00,
2013-03-10 17:10:00,45.3,25.2,30.42,South,173,3.0,3.0,45,0.00,,,0.00,Wunderground v.1.15,2013-03-10 21:10:00,
2013-03-10 17:15:00,45.1,25.0,30.42,WSW,246,3.0,4.0,45,0.00,,,0.00,Wunderground v.1.15,2013-03-10 21:15:00,
2013-03-10 17:25:00,45.2,25.6,30.42,SSW,205,3.0,7.0,46,0.00,,,0.00,Wunderground v.1.15,2013-03-10 21:25:00,
2013-03-10 17:30:00,44.9,25.9,30.42,SSW,194,3.0,3.0,47,0.00,,,0.00,Wunderground v.1.15,2013-03-10 21:30:00,
2013-03-10 17:35:00,44.7,25.7,30.42,SSW,203,4.0,4.0,47,0.00,,,0.00,Wunderground v.1.15,2013-03-10 21:35:00,
2013-03-10 17:40:00,44.5,26.0,30.42,SW,220,3.0,3.0,48,0.00,,,0.00,Wunderground v.1.15,2013-03-10 21:40:00,
2013-03-10 17:45:00,44.6,25.6,30.41,SSW,206,3.0,4.0,47,0.00,,,0.00,Wunderground v.1.15,2013-03-10 21:45:00,
2013-03-10 17:50:00,44.5,25.5,30.41,South,179,4.0,6.0,47,0.00,,,0.00,Wunderground v.1.15,2013-03-10 21:50:00,
2013-03-10 17:55:00,44.2,25.7,30.41,SSE,162,4.0,6.0,48,0.00,,,0.00,Wunderground v.1.15,2013-03-10 21:55:00,
2013-03-10 18:00:00,44.0,27.0,30.41,SE,131,2.0,4.0,51,0.00,,,0.00,Wunderground v.1.15,2013-03-10 22:00:00,
2013-03-10 18:10:00,41.7,28.0,30.41,South,176,4.0,4.0,58,0.00,,,0.00,Wunderground v.1.15,2013-03-10 22:10:00,
2013-03-10 18:15:00,41.0,28.2,30.41,SE,131,4.0,5.0,60,0.00,,,0.00,Wunderground v.1.15,2013-03-10 22:15:00,
2013-03-10 18:20:00,40.4,28.4,30.41,SSE,157,4.0,5.0,62,0.00,,,0.00,Wunderground v.1.15,2013-03-10 22:20:00,
2013-03-10 18:25:00,40.0,28.4,30.41,SSE,155,5.0,10.0,63,0.00,,,0.00,Wunderground v.1.15,2013-03-10 22:25:00,
2013-03-10 18:30:00,39.6,28.4,30.41,South,182,6.0,6.0,64,0.00,,,0.00,Wunderground v.1.15,2013-03-10 22:30:00,
2013-03-10 18:35:00,39.2,28.4,30.41,SSE,157,6.0,6.0,65,0.00,,,0.00,Wunderground v.1.15,2013-03-10 22:35:00,
2013-03-10 18:40:00,38.8,28.8,30.41,South,190,6.0,6.0,67,0.00,,,0.00,Wunderground v.1.15,2013-03-10 22:40:00,
2013-03-10 18:45:00,38.4,28.4,30.41,South,187,5.0,6.0,67,0.00,,,0.00,Wunderground v.1.15,2013-03-10 22:45:00,
2013-03-10 18:50:00,38.2,28.6,30.41,SSE,167,4.0,4.0,68,0.00,,,0.00,Wunderground v.1.15,2013-03-10 22:50:00,
2013-03-10 18:55:00,38.0,28.4,30.41,SSW,199,5.0,5.0,68,0.00,,,0.00,Wunderground v.1.15,2013-03-10 22:55:00,
2013-03-10 19:00:00,37.7,28.8,30.41,SE,127,5.0,7.0,70,0.00,,,0.00,Wunderground v.1.15,2013-03-10 23:00:00,
2013-03-10 19:05:00,37.5,28.6,30.41,SSW,202,5.0,7.0,70,0.00,,,0.00,Wunderground v.1.15,2013-03-10 23:05:00,
2013-03-10 19:10:00,37.3,28.8,30.42,SW,226,5.0,6.0,71,0.00,,,0.00,Wunderground v.1.15,2013-03-10 23:10:00,
2013-03-10 19:15:00,37.1,28.6,30.42,South,174,4.0,6.0,71,0.00,,,0.00,Wunderground v.1.15,2013-03-10 23:15:00,
2013-03-10 19:20:00,36.8,28.6,30.42,SSE,164,4.0,4.0,72,0.00,,,0.00,Wunderground v.1.15,2013-03-10 23:20:00,
2013-03-10 19:25:00,36.6,28.4,30.42,SSW,205,4.0,4.0,72,0.00,,,0.00,Wunderground v.1.15,2013-03-10 23:25:00,
2013-03-10 19:30:00,36.5,28.7,30.42,SSW,200,4.0,4.0,73,0.00,,,0.00,Wunderground v.1.15,2013-03-10 23:30:00,
2013-03-10 19:35:00,36.4,28.6,30.42,SSE,160,5.0,5.0,73,0.00,,,0.00,Wunderground v.1.15,2013-03-10 23:35:00,
2013-03-10 19:40:00,36.2,28.7,30.42,SW,219,5.0,9.0,74,0.00,,,0.00,Wunderground v.1.15,2013-03-10 23:40:00,
2013-03-10 19:45:00,36.0,28.5,30.42,SSW,196,5.0,9.0,74,0.00,,,0.00,Wunderground v.1.15,2013-03-10 23:45:00,
2013-03-10 19:50:00,35.7,28.6,30.41,SSE,163,5.0,5.0,75,0.00,,,0.00,Wunderground v.1.15,2013-03-10 23:50:00,
2013-03-10 19:55:00,35.6,28.5,30.42,South,182,5.0,5.0,75,0.00,,,0.00,Wunderground v.1.15,2013-03-10 23:55:00,
2013-03-10 20:00:00,35.4,28.6,30.42,SSW,202,5.0,5.0,76,0.00,,,0.00,Wunderground v.1.15,2013-03-11 00:00:00,
2013-03-10 20:05:00,35.4,28.6,30.42,SSW,194,5.0,10.0,76,0.00,,,0.00,Wunderground v.1.15,2013-03-11 00:05:00,
2013-03-10 20:10:00,35.3,28.5,30.42,South,189,6.0,6.0,76,0.00,,,0.00,Wunderground v.1.15,2013-03-11 00:10:00,
2013-03-10 20:15:00,35.2,28.4,30.42,SSW,198,6.0,6.0,76,0.00,,,0.00,Wunderground v.1.15,2013-03-11 00:15:00,
2013-03-10 20:20:00,35.1,28.3,30.43,South,190,6.0,6.0,76,0.00,,,0.00,Wunderground v.1.15,2013-03-11 00:20:00,
2013-03-10 20:25:00,35.0,28.5,30.43,SSW,192,6.0,7.0,77,0.00,,,0.00,Wunderground v.1.15,2013-03-11 00:25:00,
2013-03-10 20:30:00,34.8,28.3,30.43,South,187,5.0,5.0,77,0.00,,,0.00,Wunderground v.1.15,2013-03-11 00:30:00,
2013-03-10 20:40:00,34.6,28.4,30.43,SSE,149,5.0,7.0,78,0.00,,,0.00,Wunderground v.1.15,2013-03-11 00:40:00,
2013-03-10 20:45:00,34.5,28.3,30.43,SW,223,5.0,7.0,78,0.00,,,0.00,Wunderground v.1.15,2013-03-11 00:45:00,
2013-03-10 20:55:00,34.6,28.4,30.43,SSW,200,5.0,5.0,78,0.00,,,0.00,Wunderground v.1.15,2013-03-11 00:55:00,
2013-03-10 21:00:00,34.8,28.6,30.42,SSW,196,5.0,5.0,78,0.00,,,0.00,Wunderground v.1.15,2013-03-11 01:00:00,
2013-03-10 21:10:00,34.3,28.5,30.42,SW,215,4.0,4.0,79,0.00,,,0.00,Wunderground v.1.15,2013-03-11 01:10:00,
2013-03-10 21:15:00,34.3,28.5,30.42,SSW,209,3.0,4.0,79,0.00,,,0.00,Wunderground v.1.15,2013-03-11 01:15:00,
2013-03-10 21:20:00,34.2,28.7,30.42,SW,215,3.0,4.0,80,0.00,,,0.00,Wunderground v.1.15,2013-03-11 01:20:00,
2013-03-10 21:25:00,34.1,28.6,30.42,SSW,195,3.0,4.0,80,0.00,,,0.00,Wunderground v.1.15,2013-03-11 01:25:00,
2013-03-10 21:30:00,34.0,28.5,30.42,SW,220,4.0,4.0,80,0.00,,,0.00,Wunderground v.1.15,2013-03-11 01:30:00,
2013-03-10 21:35:00,34.0,28.5,30.42,SW,215,3.0,4.0,80,0.00,,,0.00,Wunderground v.1.15,2013-03-11 01:35:00,
2013-03-10 21:40:00,33.9,28.4,30.42,SSW,202,3.0,4.0,80,0.00,,,0.00,Wunderground v.1.15,2013-03-11 01:40:00,
2013-03-10 21:45:00,33.8,28.3,30.41,SSW,213,4.0,4.0,80,0.00,,,0.00,Wunderground v.1.15,2013-03-11 01:45:00,
2013-03-10 21:50:00,33.7,28.2,30.40,SW,220,3.0,3.0,80,0.00,,,0.00,Wunderground v.1.15,2013-03-11 01:50:00,
2013-03-10 21:55:00,33.5,28.3,30.40,South,174,3.0,4.0,81,0.00,,,0.00,Wunderground v.1.15,2013-03-11 01:55:00,
2013-03-10 22:00:00,33.3,28.4,30.41,WSW,246,3.0,3.0,82,0.00,,,0.00,Wunderground v.1.15,2013-03-11 02:00:00,
2013-03-10 22:05:00,33.3,28.4,30.42,NW,308,2.0,3.0,82,0.00,,,0.00,Wunderground v.1.15,2013-03-11 02:05:00,
2013-03-10 22:10:00,33.3,28.4,30.43,North,5,2.0,2.0,82,0.00,,,0.00,Wunderground v.1.15,2013-03-11 02:10:00,
2013-03-10 22:15:00,33.3,28.4,30.43,SW,226,2.0,12.0,82,0.00,,,0.00,Wunderground v.1.15,2013-03-11 02:15:00,
2013-03-10 22:20:00,32.9,28.3,30.42,SSW,207,4.0,4.0,83,0.00,,,0.00,Wunderground v.1.15,2013-03-11 02:20:00,
2013-03-10 22:25:00,32.8,28.2,30.43,SW,217,5.0,5.0,83,0.00,,,0.00,Wunderground v.1.15,2013-03-11 02:25:00,
2013-03-10 22:30:00,32.7,28.1,30.43,SW,223,6.0,6.0,83,0.00,,,0.00,Wunderground v.1.15,2013-03-11 02:30:00,
2013-03-10 22:35:00,32.6,28.0,30.43,SW,236,5.0,6.0,83,0.00,,,0.00,Wunderground v.1.15,2013-03-11 02:35:00,
2013-03-10 22:40:00,32.7,28.4,30.42,SW,233,4.0,10.0,84,0.00,,,0.00,Wunderground v.1.15,2013-03-11 02:40:00,
2013-03-10 22:45:00,32.7,28.1,30.42,SW,223,4.0,10.0,83,0.00,,,0.00,Wunderground v.1.15,2013-03-11 02:45:00,
2013-03-10 22:50:00,32.6,28.3,30.42,SW,221,4.0,4.0,84,0.00,,,0.00,Wunderground v.1.15,2013-03-11 02:50:00,
2013-03-10 22:55:00,32.7,28.4,30.42,SW,219,4.0,5.0,84,0.00,,,0.00,Wunderground v.1.15,2013-03-11 02:55:00,
2013-03-10 23:00:00,32.8,28.5,30.42,South,189,5.0,5.0,84,0.00,,,0.00,Wunderground v.1.15,2013-03-11 03:00:00,
2013-03-10 23:10:00,32.7,28.4,30.42,SW,225,4.0,4.0,84,0.00,,,0.00,Wunderground v.1.15,2013-03-11 03:10:00,
2013-03-10 23:15:00,32.6,28.3,30.42,SW,214,4.0,6.0,84,0.00,,,0.00,Wunderground v.1.15,2013-03-11 03:15:00,
2013-03-10 23:20:00,32.6,28.3,30.42,West,263,4.0,10.0,84,0.00,,,0.00,Wunderground v.1.15,2013-03-11 03:20:00,
2013-03-10 23:25:00,32.5,28.5,30.42,South,185,5.0,10.0,85,0.00,,,0.00,Wunderground v.1.15,2013-03-11 03:25:00,
2013-03-10 23:30:00,32.4,28.4,30.41,SW,236,6.0,7.0,85,0.00,,,0.00,Wunderground v.1.15,2013-03-11 03:30:00,
2013-03-10 23:40:00,32.3,28.3,30.41,SW,223,3.0,3.0,85,0.00,,,0.00,Wunderground v.1.15,2013-03-11 03:40:00,
2013-03-10 23:45:00,32.2,28.5,30.41,SW,229,2.0,4.0,86,0.00,,,0.00,Wunderground v.1.15,2013-03-11 03:45:00,
2013-03-10 23:50:00,32.1,28.4,30.41,SW,236,3.0,3.0,86,0.00,,,0.00,Wunderground v.1.15,2013-03-11 03:50:00,
2013-03-10 23:55:00,32.0,28.3,30.42,WSW,258,4.0,7.0,86,0.00,,,0.00,Wunderground v.1.15,2013-03-11 03:55:00,